St. Augustine, FL

5:10 PM EDT on July 20, 2017 (GMT -0400)
Saint Augustine

Weather History for KSGJ - January, 2008

Change the Weather History Date:

Thursday, January 3, 2008

  Actual Average Record
Temperature  
Mean Temperature 37 °F -  
Max Temperature 46 °F 62 °F 83 °F (1982)
Min Temperature 28 °F 44 °F 22 °F (1979)
Degree Days  
Heating Degree Days 28    
Moisture  
Dew Point 21 °F    
Average Humidity 54    
Maximum Humidity 70    
Minimum Humidity 41    
Precipitation  
Precipitation 0.00 in - - ()
Sea Level Pressure  
Sea Level Pressure 30.63 in    
Wind  
Wind Speed 14 mph (NNW)    
Max Wind Speed 18 mph    
Max Gust Speed 29 mph    
Visibility 10 miles    
Events      
Averages and records for this station are not official NWS values.
T = Trace of Precipitation, MM = Missing Value Source: NWS Daily Summary

Daily Weather History Graph

Daily Weather History Graph

Search for Another Location

Airport or City:

Trip Planner

Search our weather history database for the weather conditions in past years. The results will help you decide how hot, cold, wet, or windy it might be!

Date:

Astronomy

Jan. 03, 2008 Rise Set
Actual Time 7:21 AM EST 5:37 PM EST
Civil Twilight 6:55 AM EST 6:04 PM EST
Nautical Twilight 6:25 AM EST 6:33 PM EST
Astronomical Twilight 5:56 AM EST 7:03 PM EST
Moon 3:12 AM EST (1/3) 1:43 PM EST (1/3)
Length of Visible Light 11h 08m
Length of Day
10h 16m
Waning Crescent, 20% of the Moon is Illuminated
Jan 3
Waning Crescent
Jan 8
New
Jan 15
First Quarter
Jan 22
Full
Jan 30
Last Quarter

Hourly Weather History & Observations

Time (EST) Temp. Windchill Dew Point Humidity Pressure Visibility Wind Dir Wind Speed Gust Speed Precip Events Conditions
12:15 AM 32.0 °F 22.5 °F 10.4 °F 41% 30.58 in 10.0 mi NNW 12.7 mph - N/A   Clear
12:35 AM 30.2 °F 18.9 °F 10.4 °F 44% 30.58 in 10.0 mi NNW 16.1 mph 20.7 mph N/A   Clear
12:55 AM 30.2 °F 20.2 °F 10.4 °F 44% 30.57 in 10.0 mi NNW 12.7 mph - N/A   Clear
1:15 AM 30.2 °F 20.2 °F 10.4 °F 44% 30.57 in 10.0 mi NNW 12.7 mph 20.7 mph N/A   Clear
1:35 AM 30.2 °F 19.3 °F 10.4 °F 44% 30.57 in 10.0 mi NNW 15.0 mph 19.6 mph N/A   Clear
1:55 AM 30.2 °F 19.3 °F 10.4 °F 44% 30.57 in 10.0 mi NNW 15.0 mph - N/A   Clear
2:15 AM 30.2 °F 19.3 °F 10.4 °F 44% 30.57 in 10.0 mi NW 15.0 mph - N/A   Clear
2:35 AM 30.2 °F 19.8 °F 10.4 °F 44% 30.57 in 10.0 mi NNW 13.8 mph - N/A   Clear
2:55 AM 30.2 °F 20.2 °F 12.2 °F 47% 30.57 in 10.0 mi NNW 12.7 mph 20.7 mph N/A   Clear
3:15 AM 30.2 °F 19.3 °F 12.2 °F 47% 30.58 in 10.0 mi NNW 15.0 mph 20.7 mph N/A   Clear
3:35 AM 28.4 °F 16.6 °F 12.2 °F 51% 30.58 in 10.0 mi NW 16.1 mph 20.7 mph N/A   Clear
3:55 AM 28.4 °F 17.0 °F 12.2 °F 51% 30.58 in 10.0 mi NW 15.0 mph 19.6 mph N/A   Clear
4:15 AM 28.4 °F 17.0 °F 12.2 °F 51% 30.57 in 10.0 mi NW 15.0 mph 23.0 mph N/A   Clear
4:35 AM 28.4 °F 17.0 °F 12.2 °F 51% 30.57 in 10.0 mi North 15.0 mph - N/A   Partly Cloudy
4:55 AM 28.4 °F 17.0 °F 14.0 °F 55% 30.58 in 10.0 mi NNW 15.0 mph - N/A   Clear
5:15 AM 30.2 °F 19.8 °F 15.8 °F 55% 30.59 in 10.0 mi NNW 13.8 mph - N/A   Clear
5:35 AM 30.2 °F 19.3 °F 15.8 °F 55% 30.59 in 10.0 mi NNW 15.0 mph 23.0 mph N/A   Clear
5:55 AM 30.2 °F 19.8 °F 15.8 °F 55% 30.60 in 10.0 mi NNW 13.8 mph - N/A   Clear
6:15 AM 30.2 °F 19.3 °F 17.6 °F 60% 30.60 in 10.0 mi NNW 15.0 mph 20.7 mph N/A   Partly Cloudy
6:35 AM 30.2 °F 18.9 °F 17.6 °F 60% 30.61 in 10.0 mi NNW 16.1 mph 19.6 mph N/A   Scattered Clouds
6:50 AM 30.2 °F 18.5 °F 17.6 °F 60% 30.61 in 10.0 mi NNW 17.3 mph 23.0 mph N/A   Scattered Clouds
7:50 AM 30.2 °F 20.8 °F 17.6 °F 60% 30.65 in 10.0 mi NW 11.5 mph - N/A   Mostly Cloudy
8:55 AM 30.2 °F 20.8 °F 19.4 °F 64% 30.67 in 10.0 mi SE 11.5 mph - N/A   Mostly Cloudy
9:50 AM 35.6 °F 25.9 °F 23.0 °F 60% 30.69 in 10.0 mi NNW 16.1 mph 20.7 mph N/A   Mostly Cloudy
10:50 AM 41.0 °F - 26.6 °F 57% 30.70 in 10.0 mi North - - N/A   Mostly Cloudy
11:50 AM 44.6 °F 36.9 °F 26.6 °F 49% 30.69 in 10.0 mi NNE 18.4 mph 28.8 mph N/A   Mostly Cloudy
12:52 PM 46.4 °F 39.2 °F 28.4 °F 50% 30.66 in 10.0 mi NNE 18.4 mph 28.8 mph N/A   Scattered Clouds
1:50 PM 46.4 °F 39.2 °F 26.6 °F 46% 30.66 in 10.0 mi NNE 18.4 mph 27.6 mph N/A   Mostly Cloudy
2:50 PM 46.4 °F 39.8 °F 28.4 °F 50% 30.66 in 10.0 mi North 16.1 mph 24.2 mph N/A   Mostly Cloudy
3:50 PM 46.4 °F 40.1 °F 28.4 °F 50% 30.66 in 10.0 mi North 15.0 mph 23.0 mph N/A   Mostly Cloudy
4:50 PM 44.6 °F 37.8 °F 28.4 °F 53% 30.67 in 10.0 mi NNE 15.0 mph 20.7 mph N/A   Mostly Cloudy
5:50 PM 42.8 °F 34.8 °F 28.4 °F 57% 30.66 in 10.0 mi North 17.3 mph 21.9 mph N/A   Mostly Cloudy
6:50 PM 44.6 °F 37.8 °F 28.4 °F 53% 30.68 in 10.0 mi NNE 15.0 mph 21.9 mph N/A   Overcast
7:50 PM 42.8 °F 34.5 °F 28.4 °F 57% 30.68 in 10.0 mi NNE 18.4 mph 25.3 mph N/A   Scattered Clouds
8:55 PM 42.8 °F 34.8 °F 28.4 °F 57% 30.67 in 10.0 mi North 17.3 mph 23.0 mph N/A   Clear
9:15 PM 42.8 °F 36.2 °F 28.4 °F 57% 30.68 in 10.0 mi North 12.7 mph 23.0 mph N/A   Clear
9:35 PM 39.2 °F 33.6 °F 28.4 °F 65% 30.69 in 10.0 mi NW 8.1 mph - N/A   Clear
9:55 PM 37.4 °F 30.8 °F 28.4 °F 70% 30.69 in 10.0 mi NW 9.2 mph - N/A   Clear
10:15 PM 37.4 °F 31.4 °F 28.4 °F 70% 30.69 in 10.0 mi NW 8.1 mph - N/A   Partly Cloudy
10:35 PM 37.4 °F 30.3 °F 28.4 °F 70% 30.69 in 10.0 mi NNW 10.4 mph - N/A   Scattered Clouds
10:55 PM 42.8 °F 35.1 °F 30.2 °F 61% 30.68 in 10.0 mi North 16.1 mph 21.9 mph N/A   Mostly Cloudy
11:15 PM 44.6 °F 37.4 °F 32.0 °F 61% 30.68 in 10.0 mi NNE 16.1 mph 23.0 mph N/A   Mostly Cloudy
11:35 PM 44.6 °F 37.4 °F 30.2 °F 57% 30.67 in 10.0 mi NNE 16.1 mph 25.3 mph N/A   Overcast
11:55 PM 44.6 °F 36.9 °F 30.2 °F 57% 30.67 in 10.0 mi North 18.4 mph 23.0 mph N/A   Overcast